WFL874 SKCL-LEMD

Flight info

Callsign WFL874
Flight time N/A
Altitude 37000
Route ULQ1B ULQ DCT BUTBA DCT SERVO DCT ELB DCT UGOSA DCT AMBAS UL335 SCAPA L335 OBIKE/M084F390 M576 RKDIA DCT 24N055W 26N050W 30N040W 34N030W 37N020W/M084F410 DCT KOMUT/N0482F400 DCT RODAP DCT RAKOD DCT OGERO DCT ROLDO DCT RUKER Z409 TLD
Aircraft A359/H-SDE2E3GHIJ3J4J5LM1ORWXY/LB1D1

Departure

Time 2026-04-29 05:02
Airport Alfonso Bonilla Aragon International Airport (SKCL)

Arrival

Time N/A
Airport Adolfo Suárez Madrid–Barajas Airport (LEMD)
Time Latitude Longitude Altitude Speed Heading
2026-04-29 04:36 3.53438 -76.38650 3169 ft 0 kts 327°
2026-04-29 04:51 3.53438 -76.38649 3169 ft 0 kts 327°
2026-04-29 04:51 3.53426 -76.38641 3169 ft 2 kts 327°
2026-04-29 04:51 3.53413 -76.38634 3169 ft 2 kts 327°
2026-04-29 04:52 3.53401 -76.38625 3169 ft 2 kts 327°
2026-04-29 04:52 3.53389 -76.38618 3169 ft 2 kts 322°
2026-04-29 04:52 3.53378 -76.38607 3169 ft 2 kts 304°
2026-04-29 04:52 3.53371 -76.38594 3169 ft 2 kts 291°
2026-04-29 04:53 3.53367 -76.38581 3169 ft 1 kts 277°
2026-04-29 04:53 3.53369 -76.38571 3169 ft 1 kts 219°
2026-04-29 04:53 3.53380 -76.38567 3169 ft 2 kts 181°
2026-04-29 04:53 3.53395 -76.38567 3169 ft 2 kts 185°
2026-04-29 04:54 3.53410 -76.38564 3169 ft 2 kts 189°
2026-04-29 04:54 3.53425 -76.38562 3169 ft 2 kts 188°
2026-04-29 04:54 3.53431 -76.38561 3169 ft 0 kts 188°
2026-04-29 04:57 3.53427 -76.38562 3169 ft 0 kts 188°
2026-04-29 04:57 3.53418 -76.38563 3169 ft 1 kts 188°
2026-04-29 04:57 3.53408 -76.38565 3169 ft 1 kts 188°
2026-04-29 04:58 3.53397 -76.38567 3169 ft 1 kts 188°
2026-04-29 04:58 3.53388 -76.38567 3169 ft 0 kts 169°
2026-04-29 04:58 3.53382 -76.38562 3169 ft 1 kts 136°
2026-04-29 04:58 3.53375 -76.38549 3169 ft 2 kts 117°
2026-04-29 04:59 3.53362 -76.38528 3169 ft 4 kts 128°
2026-04-29 04:59 3.53322 -76.38509 3169 ft 8 kts 183°
2026-04-29 04:59 3.53245 -76.38520 3169 ft 13 kts 189°
2026-04-29 04:59 3.53142 -76.38538 3169 ft 15 kts 189°
2026-04-29 05:00 3.53043 -76.38554 3168 ft 4 kts 192°
2026-04-29 05:00 3.53007 -76.38561 3168 ft 5 kts 188°
2026-04-29 05:00 3.52967 -76.38547 3167 ft 7 kts 133°
2026-04-29 05:00 3.52950 -76.38495 3166 ft 7 kts 81°
2026-04-29 05:01 3.52991 -76.38444 3166 ft 11 kts 40°
2026-04-29 05:01 3.53062 -76.38395 3167 ft 13 kts 24°
2026-04-29 05:01 3.53163 -76.38370 3169 ft 32 kts 11°
2026-04-29 05:01 3.53625 -76.38290 3166 ft 100 kts 10°
2026-04-29 05:02 3.54526 -76.38139 3173 ft 158 kts
2026-04-29 05:02 3.55672 -76.37946 3525 ft 172 kts
2026-04-29 05:02 3.56841 -76.37736 4132 ft 172 kts 10°
2026-04-29 05:02 3.58043 -76.37505 4660 ft 179 kts 11°
2026-04-29 05:03 3.59275 -76.37266 5161 ft 186 kts 11°
2026-04-29 05:03 3.60588 -76.37022 5428 ft 196 kts 10°
2026-04-29 05:03 3.61962 -76.36772 5677 ft 207 kts 10°
2026-04-29 05:03 3.63402 -76.36515 5968 ft 216 kts 10°
2026-04-29 05:04 3.64925 -76.36244 6216 ft 230 kts 10°
2026-04-29 05:04 3.66539 -76.35958 6510 ft 243 kts 10°
2026-04-29 05:04 3.68256 -76.35654 6811 ft 258 kts 10°
2026-04-29 05:04 3.70069 -76.35278 7113 ft 272 kts 14°
2026-04-29 05:05 3.71927 -76.34753 7522 ft 282 kts 16°
2026-04-29 05:05 3.73814 -76.34193 8103 ft 285 kts 17°
2026-04-29 05:05 3.75705 -76.33628 8705 ft 287 kts 16°
2026-04-29 05:05 3.77579 -76.33070 9284 ft 290 kts 16°
2026-04-29 05:06 3.79516 -76.32470 9870 ft 292 kts 18°
2026-04-29 05:06 3.81464 -76.31807 10396 ft 297 kts 19°
2026-04-29 05:06 3.83447 -76.31123 10671 ft 310 kts 19°
2026-04-29 05:06 3.85452 -76.30432 10933 ft 323 kts 19°
2026-04-29 05:07 3.87629 -76.29684 11201 ft 337 kts 19°
2026-04-29 05:07 3.89871 -76.28914 11461 ft 349 kts 19°
2026-04-29 05:07 3.92235 -76.28103 11777 ft 360 kts 19°
2026-04-29 05:07 3.94638 -76.27280 12294 ft 365 kts 19°
2026-04-29 05:08 3.97040 -76.26458 12868 ft 367 kts 19°
2026-04-29 05:08 3.99487 -76.25620 13436 ft 369 kts 19°
2026-04-29 05:08 4.01943 -76.24779 13983 ft 372 kts 19°
2026-04-29 05:08 4.04402 -76.23937 14518 ft 374 kts 19°
2026-04-29 05:09 4.06870 -76.23105 15039 ft 377 kts 17°
2026-04-29 05:09 4.09394 -76.22399 15547 ft 379 kts 13°
2026-04-29 05:09 4.12007 -76.21864 16051 ft 382 kts
2026-04-29 05:09 4.14634 -76.21459 16543 ft 384 kts
2026-04-29 05:10 4.17283 -76.21072 17027 ft 387 kts
2026-04-29 05:10 4.19972 -76.20681 17505 ft 389 kts
2026-04-29 05:10 4.22628 -76.20292 17967 ft 392 kts
2026-04-29 05:10 4.25325 -76.19895 18424 ft 394 kts
2026-04-29 05:11 4.28073 -76.19489 18878 ft 396 kts
2026-04-29 05:11 4.30767 -76.19091 19313 ft 399 kts
2026-04-29 05:11 4.33508 -76.18684 19744 ft 401 kts
2026-04-29 05:11 4.36273 -76.18274 20169 ft 403 kts
2026-04-29 05:12 4.39070 -76.17859 20592 ft 406 kts
2026-04-29 05:12 4.41842 -76.17447 21000 ft 408 kts
2026-04-29 05:12 4.44639 -76.17031 21402 ft 410 kts
2026-04-29 05:12 4.47466 -76.16612 21800 ft 412 kts
2026-04-29 05:13 4.50321 -76.16187 22190 ft 414 kts
2026-04-29 05:13 4.53143 -76.15768 22567 ft 417 kts
2026-04-29 05:13 4.56032 -76.15337 22944 ft 419 kts
2026-04-29 05:13 4.58916 -76.14909 23310 ft 421 kts
2026-04-29 05:14 4.61782 -76.14483 23665 ft 423 kts
2026-04-29 05:14 4.62773 -76.14336 23785 ft 423 kts
2026-04-29 05:14 4.67622 -76.13614 24353 ft 427 kts
2026-04-29 05:14 4.70574 -76.13175 24683 ft 428 kts
2026-04-29 05:15 4.73485 -76.12742 25004 ft 430 kts
2026-04-29 05:15 4.76460 -76.12299 25320 ft 432 kts
2026-04-29 05:15 4.79412 -76.11861 25620 ft 433 kts
2026-04-29 05:15 4.82402 -76.11415 25913 ft 435 kts
2026-04-29 05:16 4.85374 -76.10973 26196 ft 437 kts
2026-04-29 05:16 4.88382 -76.10525 26475 ft 438 kts
2026-04-29 05:16 4.91399 -76.10077 26746 ft 440 kts
2026-04-29 05:16 4.94440 -76.09624 27009 ft 442 kts
2026-04-29 05:17 4.97457 -76.09175 27261 ft 443 kts
2026-04-29 05:17 5.00487 -76.08723 27500 ft 445 kts
2026-04-29 05:17 5.03562 -76.08265 27726 ft 447 kts
2026-04-29 05:17 5.06618 -76.07809 27938 ft 449 kts
2026-04-29 05:18 5.09735 -76.07345 28145 ft 451 kts
2026-04-29 05:18 5.12832 -76.06885 28345 ft 453 kts
2026-04-29 05:18 5.15957 -76.06422 28549 ft 455 kts
2026-04-29 05:18 5.19072 -76.05961 28759 ft 456 kts
2026-04-29 05:19 5.22194 -76.05498 28969 ft 458 kts
2026-04-29 05:19 5.25322 -76.05032 29175 ft 459 kts
2026-04-29 05:19 5.28505 -76.04559 29379 ft 460 kts
2026-04-29 05:19 5.31655 -76.04090 29575 ft 461 kts
2026-04-29 05:20 5.34824 -76.03619 29766 ft 463 kts
2026-04-29 05:20 5.37992 -76.03146 29947 ft 464 kts
2026-04-29 05:20 5.41166 -76.02673 30120 ft 465 kts
2026-04-29 05:20 5.44377 -76.02195 30310 ft 465 kts
2026-04-29 05:21 5.47561 -76.01720 30546 ft 465 kts
2026-04-29 05:21 5.50740 -76.01247 30788 ft 464 kts
2026-04-29 05:21 5.53927 -76.00771 31017 ft 463 kts
2026-04-29 05:21 5.57082 -76.00300 31232 ft 463 kts
2026-04-29 05:22 5.60276 -75.99823 31442 ft 462 kts
2026-04-29 05:22 5.63454 -75.99348 31646 ft 462 kts
2026-04-29 05:22 5.66580 -75.98882 31841 ft 461 kts
2026-04-29 05:22 5.69778 -75.98404 32036 ft 461 kts
2026-04-29 05:23 5.72928 -75.97934 32224 ft 460 kts
2026-04-29 05:23 5.76093 -75.97463 32409 ft 460 kts
2026-04-29 05:23 5.79251 -75.96992 32587 ft 459 kts
2026-04-29 05:23 5.82398 -75.96523 32757 ft 459 kts
2026-04-29 05:24 5.85508 -75.96059 32922 ft 458 kts
2026-04-29 05:24 5.88677 -75.95586 33087 ft 458 kts
2026-04-29 05:24 5.91827 -75.95116 33251 ft 458 kts
2026-04-29 05:24 5.94942 -75.94651 33411 ft 457 kts
2026-04-29 05:25 5.98086 -75.94182 33571 ft 456 kts
2026-04-29 05:25 6.01234 -75.93712 33729 ft 456 kts
2026-04-29 05:25 6.04325 -75.93250 33877 ft 455 kts
2026-04-29 05:25 6.07475 -75.92780 34021 ft 455 kts
2026-04-29 05:26 6.10581 -75.92316 34158 ft 455 kts
2026-04-29 05:26 6.13713 -75.91849 34293 ft 454 kts
2026-04-29 05:26 6.16821 -75.91387 34424 ft 454 kts
2026-04-29 05:26 6.19948 -75.90922 34550 ft 454 kts
2026-04-29 05:27 6.23052 -75.90459 34672 ft 453 kts
2026-04-29 05:27 6.29247 -75.89534 34904 ft 453 kts
2026-04-29 05:27 6.32357 -75.89069 35014 ft 452 kts
2026-04-29 05:28 6.35470 -75.88603 35122 ft 452 kts
2026-04-29 05:28 6.38570 -75.88140 35225 ft 452 kts
2026-04-29 05:28 6.44728 -75.87219 35398 ft 452 kts
2026-04-29 05:29 6.50932 -75.86290 35538 ft 452 kts
2026-04-29 05:29 6.57142 -75.85361 35670 ft 453 kts
2026-04-29 05:30 6.63384 -75.84426 35792 ft 453 kts
2026-04-29 05:30 6.69633 -75.83490 35903 ft 454 kts
2026-04-29 05:31 6.75822 -75.82486 36007 ft 454 kts 12°
2026-04-29 05:31 6.81839 -75.80654 36096 ft 455 kts 21°
2026-04-29 05:32 6.87483 -75.77815 36174 ft 456 kts 31°
2026-04-29 05:32 6.92607 -75.74075 36243 ft 457 kts 39°
2026-04-29 05:33 6.97517 -75.70019 36272 ft 458 kts 39°
2026-04-29 05:33 7.02433 -75.65946 36252 ft 461 kts 39°
2026-04-29 05:34 7.07414 -75.61832 36283 ft 463 kts 39°
2026-04-29 05:34 7.12360 -75.57763 36373 ft 463 kts 39°
2026-04-29 05:35 7.17375 -75.53655 36452 ft 464 kts 39°
2026-04-29 05:35 7.22340 -75.49574 36519 ft 464 kts 39°
2026-04-29 05:36 7.27351 -75.45447 36585 ft 464 kts 39°
2026-04-29 05:36 7.32304 -75.41363 36645 ft 465 kts 39°
2026-04-29 05:37 7.37310 -75.37232 36703 ft 465 kts 39°
2026-04-29 05:37 7.42281 -75.33122 36757 ft 465 kts 39°
2026-04-29 05:38 7.47290 -75.28960 36809 ft 466 kts 39°
2026-04-29 05:38 7.52276 -75.24832 36858 ft 466 kts 39°
2026-04-29 05:39 7.57271 -75.20705 36906 ft 466 kts 39°
2026-04-29 05:39 7.62264 -75.16582 36935 ft 467 kts 39°
2026-04-29 05:40 7.67262 -75.12455 36943 ft 467 kts 39°
2026-04-29 05:40 7.72277 -75.08308 36935 ft 468 kts 40°
2026-04-29 05:41 7.77297 -75.04087 36911 ft 469 kts 40°
2026-04-29 05:41 7.82269 -74.99896 36900 ft 468 kts 40°
2026-04-29 05:42 7.87243 -74.95708 36896 ft 468 kts 40°
2026-04-29 05:42 7.92228 -74.91512 36895 ft 467 kts 40°
2026-04-29 05:43 7.97186 -74.87339 36895 ft 466 kts 40°
2026-04-29 05:43 8.02147 -74.83160 36894 ft 466 kts 40°
2026-04-29 05:44 8.07099 -74.78989 36894 ft 466 kts 40°
2026-04-29 05:44 8.12072 -74.74805 36894 ft 466 kts 40°
2026-04-29 05:45 8.17026 -74.70655 36894 ft 466 kts 40°
2026-04-29 05:45 8.22015 -74.66462 36894 ft 466 kts 40°
2026-04-29 05:46 8.26970 -74.62288 36894 ft 466 kts 40°
2026-04-29 05:46 8.31911 -74.58120 36894 ft 466 kts 40°
2026-04-29 05:47 8.36867 -74.53938 36894 ft 466 kts 40°
2026-04-29 05:47 8.41807 -74.49768 36894 ft 466 kts 40°
2026-04-29 05:48 8.46762 -74.45583 36894 ft 466 kts 40°
2026-04-29 05:48 8.51721 -74.41393 36894 ft 466 kts 40°
2026-04-29 05:49 8.56667 -74.37212 36894 ft 466 kts 40°
2026-04-29 05:49 8.61618 -74.33019 36894 ft 466 kts 41°
2026-04-29 05:50 8.66577 -74.28796 36894 ft 466 kts 41°
2026-04-29 05:50 8.71502 -74.24618 36894 ft 466 kts 40°
2026-04-29 05:51 8.76460 -74.20421 36894 ft 466 kts 40°
2026-04-29 05:51 8.81397 -74.16241 36894 ft 466 kts 40°
2026-04-29 05:52 8.86350 -74.12048 36894 ft 466 kts 40°
2026-04-29 05:52 8.91310 -74.07849 36894 ft 466 kts 40°
2026-04-29 05:53 8.96246 -74.03669 36894 ft 466 kts 40°
2026-04-29 05:53 9.01230 -73.99484 36895 ft 466 kts 39°
2026-04-29 05:54 9.06504 -73.95716 36894 ft 467 kts 32°
2026-04-29 05:54 9.12169 -73.92477 36894 ft 468 kts 29°
2026-04-29 05:55 9.17904 -73.89393 36898 ft 468 kts 29°
2026-04-29 05:55 9.23637 -73.86298 36911 ft 468 kts 29°
2026-04-29 05:56 9.29327 -73.83211 36928 ft 468 kts 29°
2026-04-29 05:56 9.35049 -73.80101 36940 ft 468 kts 29°
2026-04-29 05:57 9.40796 -73.76976 36946 ft 468 kts 29°
2026-04-29 05:57 9.46489 -73.73878 36947 ft 468 kts 29°
2026-04-29 05:58 9.52202 -73.70768 36947 ft 468 kts 29°
2026-04-29 05:58 9.57941 -73.67643 36947 ft 468 kts 29°
2026-04-29 05:59 9.63628 -73.64544 36947 ft 468 kts 29°
2026-04-29 05:59 9.69363 -73.61417 36947 ft 468 kts 29°
2026-04-29 06:00 9.75069 -73.58300 36947 ft 468 kts 29°
2026-04-29 06:00 9.80775 -73.55116 36947 ft 468 kts 30°
2026-04-29 06:01 9.86446 -73.51939 36947 ft 468 kts 30°
2026-04-29 06:01 9.92125 -73.48760 36947 ft 468 kts 30°
2026-04-29 06:02 9.97803 -73.45582 36947 ft 468 kts 30°
2026-04-29 06:02 10.03473 -73.42407 36947 ft 468 kts 30°
2026-04-29 06:03 10.09172 -73.39216 36947 ft 468 kts 30°
2026-04-29 06:03 10.14867 -73.36037 36947 ft 468 kts 30°
2026-04-29 06:04 10.20556 -73.32850 36948 ft 468 kts 30°
2026-04-29 06:04 10.26236 -73.29643 36947 ft 468 kts 30°
2026-04-29 06:05 10.31889 -73.26463 36947 ft 468 kts 30°
2026-04-29 06:05 10.37575 -73.23268 36947 ft 468 kts 30°
2026-04-29 06:06 10.43253 -73.20079 36947 ft 468 kts 30°
2026-04-29 06:06 10.48920 -73.16898 36948 ft 467 kts 30°
2026-04-29 06:07 10.54590 -73.13712 36948 ft 465 kts 30°
2026-04-29 06:07 10.60203 -73.10557 36948 ft 463 kts 30°
2026-04-29 06:08 10.65824 -73.07394 36948 ft 461 kts 30°
2026-04-29 06:08 10.71407 -73.04253 36948 ft 459 kts 30°
2026-04-29 06:09 10.76946 -73.01135 36948 ft 456 kts 29°
2026-04-29 06:09 10.82475 -72.98019 36948 ft 454 kts 29°
2026-04-29 06:10 10.87964 -72.94927 36948 ft 453 kts 29°
2026-04-29 06:10 10.93441 -72.91840 36946 ft 452 kts 28°
2026-04-29 06:11 10.98913 -72.88753 36939 ft 450 kts 28°
2026-04-29 06:11 11.04387 -72.85666 36931 ft 449 kts 27°
2026-04-29 06:12 11.09823 -72.82602 36925 ft 449 kts 27°
2026-04-29 06:12 11.15301 -72.79527 36922 ft 449 kts 27°
2026-04-29 06:13 11.20744 -72.76466 36921 ft 449 kts 27°
2026-04-29 06:13 11.26196 -72.73392 36921 ft 449 kts 27°
2026-04-29 06:14 11.31648 -72.70312 36921 ft 449 kts 27°
2026-04-29 06:14 11.37065 -72.67250 36921 ft 449 kts 27°
2026-04-29 06:15 11.42529 -72.64159 36921 ft 449 kts 27°
2026-04-29 06:15 11.47958 -72.61087 36909 ft 449 kts 27°
2026-04-29 06:16 11.53410 -72.58000 36900 ft 449 kts 27°
2026-04-29 06:16 11.58853 -72.54916 36896 ft 449 kts 27°
2026-04-29 06:17 11.64300 -72.51829 36895 ft 449 kts 27°
2026-04-29 06:17 11.69764 -72.48731 36894 ft 449 kts 27°
2026-04-29 06:18 11.75196 -72.45651 36894 ft 449 kts 27°
2026-04-29 06:18 11.80658 -72.42551 36894 ft 449 kts 27°
2026-04-29 06:19 11.86080 -72.39472 36894 ft 449 kts 27°
2026-04-29 06:19 11.91516 -72.36385 36894 ft 449 kts 27°
2026-04-29 06:20 11.96972 -72.33273 36894 ft 449 kts 28°
2026-04-29 06:20 12.00583 -72.31200 36894 ft 450 kts 28°